Powrót do katalogu

STARLINK-31240

AktywnyŁącznośćVLEO
NORAD 59041·PAYLOAD·🇺🇸 United States

Wystrzelony Feb 25, 2024 z Cape Canaveral Space Force Station

Loading…

Następne Przeloty (najbliższe 24 godziny)

TLE

ŚwieżeSource: CelesTrak SupGP

Epoka: Sep 15, 2026, 01:58 UTC

1 59041C 24038U   26258.08243056 -.00027229  00000+0 -98645-3 0  2583
2 59041  43.0044  34.2428 0001630 275.6369 323.8376 15.27584123    18

Śledź STARLINK-31240 w czasie rzeczywistym z AllMySat

Download on the App Store